Year,Month,Day,Hour,Minute,Value (Times are PST for temperature in C)
2015,09,29,00,00,7.60
2015,09,29,00,01,7.60
2015,09,29,00,02,7.60
2015,09,29,00,03,7.60
2015,09,29,00,04,7.60
2015,09,29,00,05,7.60
2015,09,29,00,06,7.60
2015,09,29,00,07,7.60
2015,09,29,00,08,7.50
2015,09,29,00,09,7.50
2015,09,29,00,10,7.50
2015,09,29,00,11,7.50
2015,09,29,00,12,7.50
2015,09,29,00,13,7.40
2015,09,29,00,14,7.40
2015,09,29,00,15,7.40
2015,09,29,00,16,7.40
2015,09,29,00,17,7.40
2015,09,29,00,18,7.40
2015,09,29,00,19,7.30
2015,09,29,00,20,7.30
2015,09,29,00,21,7.20
2015,09,29,00,22,7.20
2015,09,29,00,23,7.20
2015,09,29,00,24,7.20
2015,09,29,00,25,7.20
2015,09,29,00,26,7.20
2015,09,29,00,27,7.20
2015,09,29,00,28,7.10
2015,09,29,00,29,7.10
2015,09,29,00,30,7.10
2015,09,29,00,31,7.10
2015,09,29,00,32,7.10
2015,09,29,00,33,7.10
2015,09,29,00,34,7.10
2015,09,29,00,35,7.10
2015,09,29,00,36,7.10
2015,09,29,00,37,7.10
2015,09,29,00,38,7.10
2015,09,29,00,39,7.10
2015,09,29,00,40,7.10
2015,09,29,00,41,7.10
2015,09,29,00,42,7.10
2015,09,29,00,43,7.10
2015,09,29,00,44,7.10
2015,09,29,00,45,7.10
2015,09,29,00,46,7.10
2015,09,29,00,47,7.10
2015,09,29,00,48,7.10
2015,09,29,00,49,7.00
2015,09,29,00,50,7.00
2015,09,29,00,51,7.00
2015,09,29,00,52,6.90
2015,09,29,00,53,6.90
2015,09,29,00,54,6.90
2015,09,29,00,55,6.80
2015,09,29,00,56,6.80
2015,09,29,00,57,6.80
2015,09,29,00,58,6.80
2015,09,29,00,59,6.80
2015,09,29,01,00,6.80
2015,09,29,01,01,6.80
2015,09,29,01,02,6.80
2015,09,29,01,03,6.80
2015,09,29,01,04,6.80
2015,09,29,01,05,6.80
2015,09,29,01,06,6.80
2015,09,29,01,07,6.70
2015,09,29,01,08,6.70
2015,09,29,01,09,6.70
2015,09,29,01,10,6.70
2015,09,29,01,11,6.70
2015,09,29,01,12,6.70
2015,09,29,01,13,6.70
2015,09,29,01,14,6.70
2015,09,29,01,15,6.70
2015,09,29,01,16,6.60
2015,09,29,01,17,6.60
2015,09,29,01,18,6.60
2015,09,29,01,19,6.60
2015,09,29,01,20,6.60
2015,09,29,01,21,6.60
2015,09,29,01,22,6.60
2015,09,29,01,23,6.60
2015,09,29,01,24,6.50
2015,09,29,01,25,6.50
2015,09,29,01,26,6.50
2015,09,29,01,27,6.50
2015,09,29,01,28,6.50
2015,09,29,01,29,6.50
2015,09,29,01,30,6.40
2015,09,29,01,31,6.40
2015,09,29,01,32,6.40
2015,09,29,01,33,6.40
2015,09,29,01,34,6.40
2015,09,29,01,35,6.40
2015,09,29,01,36,6.40
2015,09,29,01,37,6.40
2015,09,29,01,38,6.40
2015,09,29,01,39,6.40
2015,09,29,01,40,6.40
2015,09,29,01,41,6.40
2015,09,29,01,42,6.40
2015,09,29,01,43,6.40
2015,09,29,01,44,6.40
2015,09,29,01,45,6.40
2015,09,29,01,46,6.40
2015,09,29,01,47,6.40
2015,09,29,01,48,6.40
2015,09,29,01,49,6.40
2015,09,29,01,50,6.40
2015,09,29,01,51,6.40
2015,09,29,01,52,6.40
2015,09,29,01,53,6.40
2015,09,29,01,54,6.40
2015,09,29,01,55,6.40
2015,09,29,01,56,6.40
2015,09,29,01,57,6.40
2015,09,29,01,58,6.40
2015,09,29,01,59,6.40
2015,09,29,02,00,6.40
2015,09,29,02,01,6.40
2015,09,29,02,02,6.40
2015,09,29,02,03,6.40
2015,09,29,02,04,6.30
2015,09,29,02,05,6.30
2015,09,29,02,06,6.30
2015,09,29,02,07,6.20
2015,09,29,02,08,6.20
2015,09,29,02,09,6.20
2015,09,29,02,10,6.20
2015,09,29,02,11,6.20
2015,09,29,02,12,6.10
2015,09,29,02,13,6.10
2015,09,29,02,14,6.10
2015,09,29,02,15,6.10
2015,09,29,02,16,6.10
2015,09,29,02,17,6.10
2015,09,29,02,18,6.10
2015,09,29,02,19,6.10
2015,09,29,02,20,6.10
2015,09,29,02,21,6.10
2015,09,29,02,22,6.10
2015,09,29,02,23,6.10
2015,09,29,02,24,6.10
2015,09,29,02,25,6.10
2015,09,29,02,26,6.20
2015,09,29,02,27,6.20
2015,09,29,02,28,6.20
2015,09,29,02,29,6.20
2015,09,29,02,30,6.20
2015,09,29,02,31,6.20
2015,09,29,02,32,6.20
2015,09,29,02,33,6.20
2015,09,29,02,34,6.20
2015,09,29,02,35,6.30
2015,09,29,02,36,6.30
2015,09,29,02,37,6.30
2015,09,29,02,38,6.20
2015,09,29,02,39,6.20
2015,09,29,02,40,6.20
2015,09,29,02,41,6.20
2015,09,29,02,42,6.20
2015,09,29,02,43,6.20
2015,09,29,02,44,6.20
2015,09,29,02,45,6.30
2015,09,29,02,46,6.30
2015,09,29,02,47,6.30
2015,09,29,02,48,6.30
2015,09,29,02,49,6.30
2015,09,29,02,50,6.30
2015,09,29,02,51,6.20
2015,09,29,02,52,6.20
2015,09,29,02,53,6.20
2015,09,29,02,54,6.20
2015,09,29,02,55,6.20
2015,09,29,02,56,6.20
2015,09,29,02,57,6.20
2015,09,29,02,58,6.20
2015,09,29,02,59,6.20
2015,09,29,03,00,6.10
2015,09,29,03,01,6.10
2015,09,29,03,02,6.10
2015,09,29,03,03,6.10
2015,09,29,03,04,6.10
2015,09,29,03,05,6.10
2015,09,29,03,06,6.10
2015,09,29,03,07,6.10
2015,09,29,03,08,6.10
2015,09,29,03,09,6.10
2015,09,29,03,10,6.10
2015,09,29,03,11,6.10
2015,09,29,03,12,6.00
2015,09,29,03,13,6.00
2015,09,29,03,14,5.90
2015,09,29,03,15,5.90
2015,09,29,03,16,5.90
2015,09,29,03,17,5.90
2015,09,29,03,18,5.80
2015,09,29,03,19,5.80
2015,09,29,03,20,5.80
2015,09,29,03,21,5.80
2015,09,29,03,22,5.70
2015,09,29,03,23,5.70
2015,09,29,03,24,5.70
2015,09,29,03,25,5.70
2015,09,29,03,26,5.60
2015,09,29,03,27,5.60
2015,09,29,03,28,5.60
2015,09,29,03,29,5.60
2015,09,29,03,30,5.60
2015,09,29,03,31,5.60
2015,09,29,03,32,5.60
2015,09,29,03,33,5.50
2015,09,29,03,34,5.50
2015,09,29,03,35,5.50
2015,09,29,03,36,5.50
2015,09,29,03,37,5.50
2015,09,29,03,38,5.40
2015,09,29,03,39,5.40
2015,09,29,03,40,5.40
2015,09,29,03,41,5.40
2015,09,29,03,42,5.40
2015,09,29,03,43,5.40
2015,09,29,03,44,5.40
2015,09,29,03,45,5.40
2015,09,29,03,46,5.40
2015,09,29,03,47,5.40
2015,09,29,03,48,5.40
2015,09,29,03,49,5.40
2015,09,29,03,50,5.40
2015,09,29,03,51,5.40
2015,09,29,03,52,5.40
2015,09,29,03,53,5.40
2015,09,29,03,54,5.40
2015,09,29,03,55,5.40
2015,09,29,03,56,5.40
2015,09,29,03,57,5.40
2015,09,29,03,58,5.50
2015,09,29,03,59,5.50
2015,09,29,04,00,5.50
2015,09,29,04,01,5.50
2015,09,29,04,02,5.60
2015,09,29,04,03,5.60
2015,09,29,04,04,5.60
2015,09,29,04,05,5.60
2015,09,29,04,06,5.60
2015,09,29,04,07,5.70
2015,09,29,04,08,5.70
2015,09,29,04,09,5.70
2015,09,29,04,10,5.70
2015,09,29,04,11,5.80
2015,09,29,04,12,5.80
2015,09,29,04,13,5.80
2015,09,29,04,14,5.80
2015,09,29,04,15,5.80
2015,09,29,04,16,5.80
2015,09,29,04,17,5.80
2015,09,29,04,18,5.80
2015,09,29,04,19,5.70
2015,09,29,04,20,5.70
2015,09,29,04,21,5.70
2015,09,29,04,22,5.70
2015,09,29,04,23,5.60
2015,09,29,04,24,5.60
2015,09,29,04,25,5.60
2015,09,29,04,26,5.60
2015,09,29,04,27,5.50
2015,09,29,04,28,5.50
2015,09,29,04,29,5.50
2015,09,29,04,30,5.50
2015,09,29,04,31,5.40
2015,09,29,04,32,5.40
2015,09,29,04,33,5.40
2015,09,29,04,34,5.40
2015,09,29,04,35,5.30
2015,09,29,04,36,5.30
2015,09,29,04,37,5.30
2015,09,29,04,38,5.30
2015,09,29,04,39,5.30
2015,09,29,04,40,5.30
2015,09,29,04,41,5.30
2015,09,29,04,42,5.30
2015,09,29,04,43,5.40
2015,09,29,04,44,5.40
2015,09,29,04,45,5.40
2015,09,29,04,46,5.40
2015,09,29,04,47,5.40
2015,09,29,04,48,5.40
2015,09,29,04,49,5.40
2015,09,29,04,50,5.40
2015,09,29,04,51,5.40
2015,09,29,04,52,5.40
2015,09,29,04,53,5.40
2015,09,29,04,54,5.40
2015,09,29,04,55,5.40
2015,09,29,04,56,5.40
2015,09,29,04,57,5.40
2015,09,29,04,58,5.40
2015,09,29,04,59,5.40
2015,09,29,05,00,5.40
2015,09,29,05,01,5.40
2015,09,29,05,02,5.40
2015,09,29,05,03,5.40
2015,09,29,05,04,5.40
2015,09,29,05,05,5.30
2015,09,29,05,06,5.30
2015,09,29,05,07,5.30
2015,09,29,05,08,5.30
2015,09,29,05,09,5.30
2015,09,29,05,10,5.30
2015,09,29,05,11,5.30
2015,09,29,05,12,5.30
2015,09,29,05,13,5.30
2015,09,29,05,14,5.30
2015,09,29,05,15,5.30
2015,09,29,05,16,5.30
2015,09,29,05,17,5.30
2015,09,29,05,18,5.30
2015,09,29,05,19,5.30
2015,09,29,05,20,5.40
2015,09,29,05,21,5.40
2015,09,29,05,22,5.40
2015,09,29,05,23,5.40
2015,09,29,05,24,5.40
2015,09,29,05,25,5.40
2015,09,29,05,26,5.40
2015,09,29,05,27,5.40
2015,09,29,05,28,5.40
2015,09,29,05,29,5.40
2015,09,29,05,30,5.40
2015,09,29,05,31,5.40
2015,09,29,05,32,5.40
2015,09,29,05,33,5.40
2015,09,29,05,34,5.40
2015,09,29,05,35,5.30
2015,09,29,05,36,5.30
2015,09,29,05,37,5.30
2015,09,29,05,38,5.30
2015,09,29,05,39,5.30
2015,09,29,05,40,5.30
2015,09,29,05,41,5.30
2015,09,29,05,42,5.30
2015,09,29,05,43,5.20
2015,09,29,05,44,5.20
2015,09,29,05,45,5.20
2015,09,29,05,46,5.20
2015,09,29,05,47,5.10
2015,09,29,05,48,5.10
2015,09,29,05,49,5.10
2015,09,29,05,50,5.10
2015,09,29,05,51,5.10
2015,09,29,05,52,5.00
2015,09,29,05,53,4.90
2015,09,29,05,54,4.90
2015,09,29,05,55,4.90
2015,09,29,05,56,4.80
2015,09,29,05,57,4.80
2015,09,29,05,58,4.80
2015,09,29,05,59,4.90
2015,09,29,06,00,4.90
2015,09,29,06,01,4.90
2015,09,29,06,02,5.00
2015,09,29,06,03,5.00
2015,09,29,06,04,5.10
2015,09,29,06,05,5.10
2015,09,29,06,06,5.20
2015,09,29,06,07,5.10
2015,09,29,06,08,5.10
2015,09,29,06,09,5.00
2015,09,29,06,10,4.90
2015,09,29,06,11,4.90
2015,09,29,06,12,4.90
2015,09,29,06,13,4.80
2015,09,29,06,14,4.80
2015,09,29,06,15,4.80
2015,09,29,06,16,4.70
2015,09,29,06,17,4.70
2015,09,29,06,18,4.70
2015,09,29,06,19,4.70
2015,09,29,06,20,4.60
2015,09,29,06,21,4.60
2015,09,29,06,22,4.60
2015,09,29,06,23,4.60
2015,09,29,06,24,4.60
2015,09,29,06,25,4.60
2015,09,29,06,26,4.60
2015,09,29,06,27,4.60
2015,09,29,06,28,4.60
2015,09,29,06,29,4.60
2015,09,29,06,30,4.60
2015,09,29,06,31,4.60
2015,09,29,06,32,4.60
2015,09,29,06,33,4.60
2015,09,29,06,34,4.70
2015,09,29,06,35,4.70
2015,09,29,06,36,4.70
2015,09,29,06,37,4.70
2015,09,29,06,38,4.70
2015,09,29,06,39,4.70
2015,09,29,06,40,4.70
2015,09,29,06,41,4.60
2015,09,29,06,42,4.60
2015,09,29,06,43,4.60
2015,09,29,06,44,4.60
2015,09,29,06,45,4.60
2015,09,29,06,46,4.60
2015,09,29,06,47,4.50
2015,09,29,06,48,4.50
2015,09,29,06,49,4.50
2015,09,29,06,50,4.40
2015,09,29,06,51,4.40
2015,09,29,06,52,4.40
2015,09,29,06,53,4.40
2015,09,29,06,54,4.40
2015,09,29,06,55,4.40
2015,09,29,06,56,4.40
2015,09,29,06,57,4.40
2015,09,29,06,58,4.30
2015,09,29,06,59,4.30
2015,09,29,07,00,4.30
2015,09,29,07,01,4.30
2015,09,29,07,02,4.30
2015,09,29,07,03,4.30
2015,09,29,07,04,4.30
2015,09,29,07,05,4.30
2015,09,29,07,06,4.40
2015,09,29,07,07,4.40
2015,09,29,07,08,4.40
2015,09,29,07,09,4.40
2015,09,29,07,10,4.40
2015,09,29,07,11,4.50
2015,09,29,07,12,4.50
2015,09,29,07,13,4.60
2015,09,29,07,14,4.60
2015,09,29,07,15,4.60
2015,09,29,07,16,4.60
2015,09,29,07,17,4.60
2015,09,29,07,18,4.60
2015,09,29,07,19,4.60
2015,09,29,07,20,4.70
2015,09,29,07,21,4.70
2015,09,29,07,22,4.60
2015,09,29,07,23,4.60
2015,09,29,07,24,4.60
2015,09,29,07,25,4.60
2015,09,29,07,26,4.60
2015,09,29,07,27,4.60
2015,09,29,07,28,4.60
2015,09,29,07,29,4.60
2015,09,29,07,30,4.60
2015,09,29,07,31,4.60
2015,09,29,07,32,4.60
2015,09,29,07,33,4.60
2015,09,29,07,34,4.60
2015,09,29,07,35,4.60
2015,09,29,07,36,4.60
2015,09,29,07,37,4.60
2015,09,29,07,38,4.60
2015,09,29,07,39,4.60
2015,09,29,07,40,4.60
2015,09,29,07,41,4.60
2015,09,29,07,42,4.60
2015,09,29,07,43,4.60
2015,09,29,07,44,4.50
2015,09,29,07,45,4.50
2015,09,29,07,46,4.40
2015,09,29,07,47,4.40
2015,09,29,07,48,4.40
2015,09,29,07,49,4.40
2015,09,29,07,50,4.40
2015,09,29,07,51,4.40
2015,09,29,07,52,4.40
2015,09,29,07,53,4.50
2015,09,29,07,54,4.50
2015,09,29,07,55,4.60
2015,09,29,07,56,4.60
2015,09,29,07,57,4.60
2015,09,29,07,58,4.70
2015,09,29,07,59,4.70
2015,09,29,08,00,4.70
2015,09,29,08,01,4.70
2015,09,29,08,02,4.80
2015,09,29,08,03,4.80
2015,09,29,08,04,4.80
2015,09,29,08,05,4.80
2015,09,29,08,06,4.90
2015,09,29,08,07,4.90
2015,09,29,08,08,5.00
2015,09,29,08,09,5.00
2015,09,29,08,10,5.10
2015,09,29,08,11,5.20
2015,09,29,08,12,5.30
2015,09,29,08,13,5.30
2015,09,29,08,14,5.40
2015,09,29,08,15,5.40
2015,09,29,08,16,5.40
2015,09,29,08,17,5.50
2015,09,29,08,18,5.50
2015,09,29,08,19,5.60
2015,09,29,08,20,5.60
2015,09,29,08,21,5.70
2015,09,29,08,22,5.80
2015,09,29,08,23,5.90
2015,09,29,08,24,5.90
2015,09,29,08,25,6.00
2015,09,29,08,26,6.10
2015,09,29,08,27,6.20
2015,09,29,08,28,6.30
2015,09,29,08,29,6.40
2015,09,29,08,30,6.50
2015,09,29,08,31,6.60
2015,09,29,08,32,6.70
2015,09,29,08,33,6.90
2015,09,29,08,34,7.00
2015,09,29,08,35,7.10
2015,09,29,08,36,7.30
2015,09,29,08,37,7.40
2015,09,29,08,38,7.50
2015,09,29,08,39,7.70
2015,09,29,08,40,7.80
2015,09,29,08,41,7.90
2015,09,29,08,42,8.00
2015,09,29,08,43,8.20
2015,09,29,08,44,8.30
2015,09,29,08,45,8.40
2015,09,29,08,46,8.50
2015,09,29,08,47,8.60
2015,09,29,08,48,8.70
2015,09,29,08,49,8.80
2015,09,29,08,50,8.90
2015,09,29,08,51,9.00
2015,09,29,08,52,9.10
2015,09,29,08,53,9.20
2015,09,29,08,54,9.30
2015,09,29,08,55,9.30
2015,09,29,08,56,9.40
2015,09,29,08,57,9.50
2015,09,29,08,58,9.50
2015,09,29,08,59,9.60
2015,09,29,09,00,9.60
2015,09,29,09,01,9.70
2015,09,29,09,02,9.70
2015,09,29,09,03,9.70
2015,09,29,09,04,9.80
2015,09,29,09,05,9.80
2015,09,29,09,06,9.90
2015,09,29,09,07,9.90
2015,09,29,09,08,10.00
2015,09,29,09,09,10.10
2015,09,29,09,10,10.30
2015,09,29,09,11,10.40
2015,09,29,09,12,10.50
2015,09,29,09,13,10.70
2015,09,29,09,14,10.80
2015,09,29,09,15,11.00
2015,09,29,09,16,11.20
2015,09,29,09,17,11.50
2015,09,29,09,18,11.70
2015,09,29,09,19,12.00
2015,09,29,09,20,12.20
2015,09,29,09,21,12.40
2015,09,29,09,22,12.60
2015,09,29,09,23,12.80
2015,09,29,09,24,13.00
2015,09,29,09,25,13.20
2015,09,29,09,26,13.30
2015,09,29,09,27,13.50
2015,09,29,09,28,13.60
2015,09,29,09,29,13.70
2015,09,29,09,30,13.90
2015,09,29,09,31,14.00
2015,09,29,09,32,14.10
2015,09,29,09,33,14.10
2015,09,29,09,34,14.20
2015,09,29,09,35,14.30
2015,09,29,09,36,14.30
2015,09,29,09,37,14.40
2015,09,29,09,38,14.40
2015,09,29,09,39,14.50
2015,09,29,09,40,14.60
2015,09,29,09,41,14.60
2015,09,29,09,42,14.70
2015,09,29,09,43,14.70
2015,09,29,09,44,14.80
2015,09,29,09,45,14.80
2015,09,29,09,46,14.80
2015,09,29,09,47,14.90
2015,09,29,09,48,14.90
2015,09,29,09,49,14.90
2015,09,29,09,50,15.00
2015,09,29,09,51,15.00
2015,09,29,09,52,15.00
2015,09,29,09,53,15.10
2015,09,29,09,54,15.10
2015,09,29,09,55,15.10
2015,09,29,09,56,15.20
2015,09,29,09,57,15.20
2015,09,29,09,58,15.30
2015,09,29,09,59,15.30
2015,09,29,10,00,15.40
2015,09,29,10,01,15.40
2015,09,29,10,02,15.40
2015,09,29,10,03,15.40
2015,09,29,10,04,15.40
2015,09,29,10,05,15.40
2015,09,29,10,06,15.50
2015,09,29,10,07,15.50
2015,09,29,10,08,15.50
2015,09,29,10,09,15.50
2015,09,29,10,10,15.50
2015,09,29,10,11,15.60
2015,09,29,10,12,15.60
2015,09,29,10,13,15.70
2015,09,29,10,14,15.70
2015,09,29,10,15,15.70
2015,09,29,10,16,15.70
2015,09,29,10,17,15.60
2015,09,29,10,18,15.60
2015,09,29,10,19,15.60
2015,09,29,10,20,15.60
2015,09,29,10,21,15.60
2015,09,29,10,22,15.60
2015,09,29,10,23,15.60
2015,09,29,10,24,15.60
2015,09,29,10,25,15.60
2015,09,29,10,26,15.60
2015,09,29,10,27,15.60
2015,09,29,10,28,15.60
2015,09,29,10,29,15.70
2015,09,29,10,30,15.70
2015,09,29,10,31,15.70
2015,09,29,10,32,15.80
2015,09,29,10,33,15.80
2015,09,29,10,34,15.80
2015,09,29,10,35,15.80
2015,09,29,10,36,15.80
2015,09,29,10,37,15.80
2015,09,29,10,38,15.90
2015,09,29,10,39,15.90
2015,09,29,10,40,15.90
2015,09,29,10,41,16.00
2015,09,29,10,42,16.00
2015,09,29,10,43,16.10
2015,09,29,10,44,16.20
2015,09,29,10,45,16.20
2015,09,29,10,46,16.20
2015,09,29,10,47,16.20
2015,09,29,10,48,16.20
2015,09,29,10,49,16.20
2015,09,29,10,50,16.20
2015,09,29,10,51,16.30
2015,09,29,10,52,16.30
2015,09,29,10,53,16.40
2015,09,29,10,54,16.40
2015,09,29,10,55,16.40
2015,09,29,10,56,16.40
2015,09,29,10,57,16.40
2015,09,29,10,58,16.40
2015,09,29,10,59,16.40
2015,09,29,11,00,16.40
2015,09,29,11,01,16.50
2015,09,29,11,02,16.50
2015,09,29,11,03,16.60
2015,09,29,11,04,16.60
2015,09,29,11,05,16.60
2015,09,29,11,06,16.70
2015,09,29,11,07,16.70
2015,09,29,11,08,16.80
2015,09,29,11,09,16.80
2015,09,29,11,10,16.90
2015,09,29,11,11,16.90
2015,09,29,11,12,16.90
2015,09,29,11,13,16.80
2015,09,29,11,14,16.90
2015,09,29,11,15,16.80
2015,09,29,11,16,16.80
2015,09,29,11,17,16.90
2015,09,29,11,18,16.90
2015,09,29,11,19,16.90
2015,09,29,11,20,16.90
2015,09,29,11,21,16.80
2015,09,29,11,22,16.80
2015,09,29,11,23,16.80
2015,09,29,11,24,16.80
2015,09,29,11,25,16.90
2015,09,29,11,26,16.90
2015,09,29,11,27,17.00
2015,09,29,11,28,16.90
2015,09,29,11,29,16.90
2015,09,29,11,30,16.80
2015,09,29,11,31,16.80
2015,09,29,11,32,16.80
2015,09,29,11,33,16.80
2015,09,29,11,34,16.80
2015,09,29,11,35,16.80
2015,09,29,11,36,16.80
2015,09,29,11,37,16.80
2015,09,29,11,38,16.80
2015,09,29,11,39,16.90
2015,09,29,11,40,17.00
2015,09,29,11,41,17.00
2015,09,29,11,42,17.10
2015,09,29,11,43,17.10
2015,09,29,11,44,17.10
2015,09,29,11,45,17.10
2015,09,29,11,46,17.10
2015,09,29,11,47,17.10
2015,09,29,11,48,17.20
2015,09,29,11,49,17.20
2015,09,29,11,50,17.20
2015,09,29,11,51,17.20
2015,09,29,11,52,17.20
2015,09,29,11,53,17.20
2015,09,29,11,54,17.30
2015,09,29,11,55,17.30
2015,09,29,11,56,17.30
2015,09,29,11,57,17.30
2015,09,29,11,58,17.40
2015,09,29,11,59,17.40
2015,09,29,12,00,17.50
2015,09,29,12,01,17.50
2015,09,29,12,02,17.50
2015,09,29,12,03,17.60
2015,09,29,12,04,17.60
2015,09,29,12,05,17.60
2015,09,29,12,06,17.60
2015,09,29,12,07,17.60
2015,09,29,12,08,17.60
2015,09,29,12,09,17.60
2015,09,29,12,10,17.70
2015,09,29,12,11,17.70
2015,09,29,12,12,17.70
2015,09,29,12,13,17.70
2015,09,29,12,14,17.70
2015,09,29,12,15,17.70
2015,09,29,12,16,17.70
2015,09,29,12,17,17.60
2015,09,29,12,18,17.60
2015,09,29,12,19,17.60
2015,09,29,12,20,17.60
2015,09,29,12,21,17.60
2015,09,29,12,22,17.60
2015,09,29,12,23,17.50
2015,09,29,12,24,17.50
2015,09,29,12,25,17.40
2015,09,29,12,26,17.40
2015,09,29,12,27,17.40
2015,09,29,12,28,17.40
2015,09,29,12,29,17.50
2015,09,29,12,30,17.50
2015,09,29,12,31,17.50
2015,09,29,12,32,17.50
2015,09,29,12,33,17.50
2015,09,29,12,34,17.40
2015,09,29,12,35,17.40
2015,09,29,12,36,17.50
2015,09,29,12,37,17.50
2015,09,29,12,38,17.60
2015,09,29,12,39,17.60
2015,09,29,12,40,17.70
2015,09,29,12,41,17.70
2015,09,29,12,42,17.70
2015,09,29,12,43,17.70
2015,09,29,12,44,17.70
2015,09,29,12,45,17.70
2015,09,29,12,46,17.70
2015,09,29,12,47,17.80
2015,09,29,12,48,17.80
2015,09,29,12,49,17.90
2015,09,29,12,50,18.00
2015,09,29,12,51,18.10
2015,09,29,12,52,18.20
2015,09,29,12,53,18.20
2015,09,29,12,54,18.30
2015,09,29,12,55,18.30
2015,09,29,12,56,18.30
2015,09,29,12,57,18.30
2015,09,29,12,58,18.30
2015,09,29,12,59,18.30
2015,09,29,13,00,18.30
2015,09,29,13,01,18.40
2015,09,29,13,02,18.50
2015,09,29,13,03,18.50
2015,09,29,13,04,18.60
2015,09,29,13,05,18.60
2015,09,29,13,06,18.70
2015,09,29,13,07,18.70
2015,09,29,13,08,18.70
2015,09,29,13,09,18.80
2015,09,29,13,10,18.80
2015,09,29,13,11,18.80
2015,09,29,13,12,18.80
2015,09,29,13,13,18.90
2015,09,29,13,14,18.90
2015,09,29,13,15,18.90
2015,09,29,13,16,19.00
2015,09,29,13,17,19.00
2015,09,29,13,18,19.00
2015,09,29,13,19,19.00
2015,09,29,13,20,19.00
2015,09,29,13,21,18.90
2015,09,29,13,22,18.80
2015,09,29,13,23,18.80
2015,09,29,13,24,18.70
2015,09,29,13,25,18.70
2015,09,29,13,26,18.70
2015,09,29,13,27,18.70
2015,09,29,13,28,18.70
2015,09,29,13,29,18.80
2015,09,29,13,30,18.80
2015,09,29,13,31,18.80
2015,09,29,13,32,18.90
2015,09,29,13,33,18.90
2015,09,29,13,34,18.90
2015,09,29,13,35,18.90
2015,09,29,13,36,18.90
2015,09,29,13,37,18.90
2015,09,29,13,38,18.90
2015,09,29,13,39,19.00
2015,09,29,13,40,19.00
2015,09,29,13,41,19.00
2015,09,29,13,42,19.00
2015,09,29,13,43,19.00
2015,09,29,13,44,18.90
2015,09,29,13,45,18.90
2015,09,29,13,46,18.90
2015,09,29,13,47,18.90
2015,09,29,13,48,18.90
2015,09,29,13,49,18.90
2015,09,29,13,50,18.90
2015,09,29,13,51,18.90
2015,09,29,13,52,18.90
2015,09,29,13,53,18.90
2015,09,29,13,54,19.00
2015,09,29,13,55,19.00
2015,09,29,13,56,19.10
2015,09,29,13,57,19.10
2015,09,29,13,58,19.10
2015,09,29,13,59,19.10
2015,09,29,14,00,19.10
2015,09,29,14,01,19.10
2015,09,29,14,02,19.10
2015,09,29,14,03,19.20
2015,09,29,14,04,19.20
2015,09,29,14,05,19.20
2015,09,29,14,06,19.30
2015,09,29,14,07,19.30
2015,09,29,14,08,19.30
2015,09,29,14,09,19.30
2015,09,29,14,10,19.40
2015,09,29,14,11,19.40
2015,09,29,14,12,19.40
2015,09,29,14,13,19.50
2015,09,29,14,14,19.60
2015,09,29,14,15,19.60
2015,09,29,14,16,19.70
2015,09,29,14,17,19.70
2015,09,29,14,18,19.80
2015,09,29,14,19,19.80
2015,09,29,14,20,19.90
2015,09,29,14,21,19.90
2015,09,29,14,22,19.90
2015,09,29,14,23,19.90
2015,09,29,14,24,20.00
2015,09,29,14,25,20.10
2015,09,29,14,26,20.10
2015,09,29,14,27,20.20
2015,09,29,14,28,20.20
2015,09,29,14,29,20.30
2015,09,29,14,30,20.30
2015,09,29,14,31,20.30
2015,09,29,14,32,20.40
2015,09,29,14,33,20.50
2015,09,29,14,34,20.50
2015,09,29,14,35,20.50
2015,09,29,14,36,20.50
2015,09,29,14,37,20.50
2015,09,29,14,38,20.50
2015,09,29,14,39,20.50
2015,09,29,14,40,20.50
2015,09,29,14,41,20.50
2015,09,29,14,42,20.60
2015,09,29,14,43,20.60
2015,09,29,14,44,20.60
2015,09,29,14,45,20.60
2015,09,29,14,46,20.60
2015,09,29,14,47,20.60
2015,09,29,14,48,20.60
2015,09,29,14,49,20.50
2015,09,29,14,50,20.60
2015,09,29,14,51,20.60
2015,09,29,14,52,20.60
2015,09,29,14,53,20.60
2015,09,29,14,54,20.70
2015,09,29,14,55,20.70
2015,09,29,14,56,20.80
2015,09,29,14,57,20.80
2015,09,29,14,58,20.80
2015,09,29,14,59,20.80
2015,09,29,15,00,20.80
2015,09,29,15,01,20.80
2015,09,29,15,02,20.80
2015,09,29,15,03,20.80
2015,09,29,15,04,20.90
2015,09,29,15,05,21.00
2015,09,29,15,06,21.00
2015,09,29,15,07,21.10
2015,09,29,15,08,21.20
2015,09,29,15,09,21.30
2015,09,29,15,10,21.40
2015,09,29,15,11,21.40
2015,09,29,15,12,21.40
2015,09,29,15,13,21.30
2015,09,29,15,14,21.30
2015,09,29,15,15,21.30
2015,09,29,15,16,21.30
2015,09,29,15,17,21.30
2015,09,29,15,18,21.20
2015,09,29,15,19,21.30
2015,09,29,15,20,21.20
2015,09,29,15,21,21.20
2015,09,29,15,22,21.20
2015,09,29,15,23,21.20
2015,09,29,15,24,21.20
2015,09,29,15,25,21.20
2015,09,29,15,26,21.20
2015,09,29,15,27,21.20
2015,09,29,15,28,21.20
2015,09,29,15,29,21.20
2015,09,29,15,30,21.20
2015,09,29,15,31,21.20
2015,09,29,15,32,21.20
2015,09,29,15,33,21.20
2015,09,29,15,34,21.20
2015,09,29,15,35,21.10
2015,09,29,15,36,21.10
2015,09,29,15,37,21.10
2015,09,29,15,38,21.00
2015,09,29,15,39,21.00
2015,09,29,15,40,21.00
2015,09,29,15,41,21.00
2015,09,29,15,42,21.00
2015,09,29,15,43,20.90
2015,09,29,15,44,20.90
2015,09,29,15,45,20.90
2015,09,29,15,46,20.90
2015,09,29,15,47,20.80
2015,09,29,15,48,20.80
2015,09,29,15,49,20.80
2015,09,29,15,50,20.80
2015,09,29,15,51,20.80
2015,09,29,15,52,20.80
2015,09,29,15,53,20.80
2015,09,29,15,54,20.80
2015,09,29,15,55,20.80
2015,09,29,15,56,20.80
2015,09,29,15,57,20.80
2015,09,29,15,58,20.80
2015,09,29,15,59,20.70
2015,09,29,16,00,20.70
2015,09,29,16,01,20.70
2015,09,29,16,02,20.60
2015,09,29,16,03,20.60
2015,09,29,16,04,20.60
2015,09,29,16,05,20.60
2015,09,29,16,06,20.60
2015,09,29,16,07,20.60
2015,09,29,16,08,20.50
2015,09,29,16,09,20.50
2015,09,29,16,10,20.60
2015,09,29,16,11,20.60
2015,09,29,16,12,20.60
2015,09,29,16,13,20.60
2015,09,29,16,14,20.60
2015,09,29,16,15,20.60
2015,09,29,16,16,20.60
2015,09,29,16,17,20.50
2015,09,29,16,18,20.50
2015,09,29,16,19,20.50
2015,09,29,16,20,20.50
2015,09,29,16,21,20.50
2015,09,29,16,22,20.50
2015,09,29,16,23,20.50
2015,09,29,16,24,20.40
2015,09,29,16,25,20.40
2015,09,29,16,26,20.40
2015,09,29,16,27,20.40
2015,09,29,16,28,20.50
2015,09,29,16,29,20.60
2015,09,29,16,30,20.60
2015,09,29,16,31,20.60
2015,09,29,16,32,20.60
2015,09,29,16,33,20.50
2015,09,29,16,34,20.40
2015,09,29,16,35,20.40
2015,09,29,16,36,20.30
2015,09,29,16,37,20.20
2015,09,29,16,38,20.10
2015,09,29,16,39,20.00
2015,09,29,16,40,19.90
2015,09,29,16,41,19.80
2015,09,29,16,42,19.60
2015,09,29,16,43,19.50
2015,09,29,16,44,19.40
2015,09,29,16,45,19.40
2015,09,29,16,46,19.40
2015,09,29,16,47,19.40
2015,09,29,16,48,19.40
2015,09,29,16,49,19.30
2015,09,29,16,50,19.30
2015,09,29,16,51,19.20
2015,09,29,16,52,19.10
2015,09,29,16,53,19.10
2015,09,29,16,54,19.00
2015,09,29,16,55,19.10
2015,09,29,16,56,19.10
2015,09,29,16,57,19.00
2015,09,29,16,58,19.00
2015,09,29,16,59,18.90
2015,09,29,17,00,18.90
2015,09,29,17,01,18.90
2015,09,29,17,02,18.90
2015,09,29,17,03,18.90
2015,09,29,17,04,18.80
2015,09,29,17,05,18.80
2015,09,29,17,06,18.80
2015,09,29,17,07,18.80
2015,09,29,17,08,18.70
2015,09,29,17,09,18.70
2015,09,29,17,10,18.60
2015,09,29,17,11,18.60
2015,09,29,17,12,18.50
2015,09,29,17,13,18.50
2015,09,29,17,14,18.50
2015,09,29,17,15,18.50
2015,09,29,17,16,18.50
2015,09,29,17,17,18.60
2015,09,29,17,18,18.60
2015,09,29,17,19,18.60
2015,09,29,17,20,18.60
2015,09,29,17,21,18.60
2015,09,29,17,22,18.60
2015,09,29,17,23,18.70
2015,09,29,17,24,18.70
2015,09,29,17,25,18.70
2015,09,29,17,26,18.80
2015,09,29,17,27,18.90
2015,09,29,17,28,18.90
2015,09,29,17,29,19.00
2015,09,29,17,30,19.10
2015,09,29,17,31,19.20
2015,09,29,17,32,19.30
2015,09,29,17,33,19.30
2015,09,29,17,34,19.40
2015,09,29,17,35,19.50
2015,09,29,17,36,19.50
2015,09,29,17,37,19.60
2015,09,29,17,38,19.60
2015,09,29,17,39,19.70
2015,09,29,17,40,19.70
2015,09,29,17,41,19.80
2015,09,29,17,42,19.80
2015,09,29,17,43,19.80